Regional Weather Roundup
Issued by NWS

Home | Current Version | Previous Version | Graphics & Text | Print | Product List | Glossary On
Versions: 1 2 3 4 5 6 7 8 9 10 11 12 13 14 15 16 17 18 19 20 21 22 23 24 25 26 27
000
ASUS45 KCYS 250510
RWRWY

WYOMING REGIONAL WEATHER ROUNDUP
NATIONAL WEATHER SERVICE CHEYENNE WY
1100 PM MDT SUN SEP 24 2017

NOTE:  "FAIR" INDICATES FEW OR NO CLOUDS BELOW 12,000 FEET
WITH NO SIGNIFICANT WEATHER AND/OR OBSTRUCTIONS TO VISIBILITY.

WYZ001-250600-
YELLOWSTONE NATIONAL PARK

CITY           SKY/WX    TMP DP  RH WIND       PRES   REMARKS
LK YELLOWSTONE NOT AVBL
W YELLOWSTONE  NOT AVBL

$$
WYZ002>013-054>058-071-098>099-250600-
NORTHERN WYOMING

CITY           SKY/WX    TMP DP  RH WIND       PRES   REMARKS
JACKSON        CLOUDY    37  35  92 CALM      30.09S
CODY           CLOUDY    42  35  76 CALM      30.12S
GREYBULL       LGT RAIN  45  44  97 S9        30.11R
WORLAND        CLOUDY    43  42  97 S6        30.11S
SHERIDAN       CLOUDY    45  40  82 CALM      30.12F
BUFFALO        CLOUDY    41  36  82 NE3       30.12F
GILLETTE       CLOUDY    41  39  93 N7        30.11F
HULETT         CLOUDY    41  37  87 N5        30.12F
NEWCASTLE      CLOUDY    43  43 100 S3        30.10R

$$
WYZ014>020-022>026-101>103-250600-
CENTRAL WYOMING

CITY           SKY/WX    TMP DP  RH WIND       PRES   REMARKS
BIG PINEY      FLURRIES  34  33  96 CALM      30.10S
PINEDALE       LGT RAIN  34  34 100 NW6       30.11R WCI  29
DUBOIS         CLOUDY    32  32 100 SE8       30.10S WCI  25
LANDER         CLOUDY    38  37  97 SE3       30.11S
RIVERTON       LGT RAIN  38  37  97 SW5       30.12S WCI  34
CASPER         FLURRIES  34  33  96 E7        30.14S WCI  28
DOUGLAS        CLOUDY    38  36  92 NW6       30.13S WCI  33

$$
WYZ021-027>030-104>119-250600-
SOUTHERN WYOMING

CITY           SKY/WX    TMP DP  RH WIND       PRES   REMARKS
EVANSTON       SNOW      34  34 100 SW6       30.11R VSB 1/4 WCI  29
FORT BRIDGER   CLOUDY    35  35 100 W12       30.12S WCI  27
ROCK SPRINGS   CLOUDY    34  33  96 NE13      30.09R WCI  25
DIXON          CLOUDY    37  34  89 E3        30.12R
RAWLINS        CLOUDY    34  33  96 CALM      30.10R
SARATOGA       CLOUDY    34  34 100 CALM      30.12S
LARAMIE        CLOUDY    33  32  96 CALM      30.10S
CHEYENNE       LGT RAIN  40  37  89 N5        30.10S
TORRINGTON     LGT RAIN  45  44  97 NE9       30.06S
PINE BLUFFS    CLOUDY    43  43 100 MISG      30.07S

$$




USA.gov is the U.S. government's official web portal to all federal, state and local government web resources and services.